GW5434 Weather Reports


Display with metric or nautical units.
time (UTC)temp
F
wind
direction
speed
MPH
gust
MPH
rain 1hr
in
rain 24hr
in
rain mn
in
humidity
%
barometer
mb
20260508050024 61 141 0.0 0.0 0.00 0.96 0.00 93 1015.8
20260508044524 61 141 0.0 0.0 0.00 1.39 0.96 93 1016.0
20260508043004 61 82 0.0 0.0 0.00 1.54 0.96 94 1016.3
20260508041513 61 335 0.0 0.0 0.00 1.58 0.96 93 1016.4
20260508040015 61 122 0.0 0.0 0.00 1.58 0.96 93 1016.0
20260508034523 61 122 0.0 0.0 0.00 1.58 0.96 93 1016.5
20260508033006 61 49 0.0 0.0 0.00 1.58 0.96 93 1016.7
20260508031507 62 358 0.0 0.0 0.00 1.58 0.96 92 1016.5
20260508030010 62 61 0.0 0.0 0.00 1.58 0.96 92 1016.7
20260508024514 62 61 0.0 0.0 0.00 1.58 0.96 92 1016.5
20260508023019 62 61 0.0 0.0 0.00 1.58 0.96 91 1016.3
20260508021504 62 61 0.0 0.0 0.00 1.58 0.96 91 1015.9
20260508020008 63 61 0.0 0.0 0.00 1.58 0.96 90 1015.4
20260508014511 63 60 0.0 0.0 0.00 1.58 0.96 89 1015.5
20260508013016 64 9 0.0 0.0 0.00 1.58 0.96 88 1015.6
20260508011522 64 321 0.0 0.0 0.00 1.58 0.96 87 1015.7
20260508010012 64 332 0.0 1.0 0.00 1.58 0.96 86 1015.7
20260508004518 65 6 0.0 0.0 0.00 1.58 0.96 86 1015.5
20260508003014 65 15 0.0 1.0 0.00 1.58 0.96 84 1015.4
20260508001518 66 306 1.0 3.0 0.00 1.78 0.96 84 1015.5
20260508000023 66 310 1.0 3.0 0.00 1.81 0.96 83 1015.4
20260507234507 67 323 2.0 5.0 0.00 1.82 0.96 83 1015.3
20260507233011 67 339 2.0 3.0 0.00 1.82 0.96 83 1015.4
20260507231517 67 325 2.0 3.0 0.00 1.82 0.96 83 1015.4
20260507230026 67 311 1.0 7.0 0.00 1.82 0.96 82 1015.5
20260507224526 68 269 1.0 9.0 0.00 1.82 0.96 81 1015.4
20260507223007 68 306 4.0 9.0 0.00 1.82 0.96 81 1015.5
20260507221515 69 305 3.0 8.0 0.00 1.82 0.96 80 1015.4
20260507220018 68 307 3.0 8.0 0.00 1.82 0.96 80 1015.4
20260507214522 69 316 3.0 7.0 0.00 1.82 0.96 81 1015.3
20260507213026 69 347 2.0 8.0 0.00 1.82 0.96 80 1015.1
20260507211508 70 352 2.0 6.0 0.00 1.82 0.96 81 1014.9
20260507210015 69 320 4.0 8.0 0.00 1.82 0.96 80 1014.9
20260507204523 69 298 3.0 7.0 0.00 1.82 0.96 80 1015.1
20260507203032 70 319 4.0 10.0 0.00 1.83 0.96 79 1015.0
20260507201524 70 327 4.0 7.0 0.00 1.87 0.96 79 1015.0
20260507200011 70 320 4.0 7.0 0.00 1.87 0.96 79 1015.2
20260507194518 71 285 3.0 6.0 0.00 1.87 0.96 79 1015.1
20260507193022 72 316 3.0 11.0 0.00 1.87 0.96 78 1015.2
20260507191504 72 315 4.0 9.0 0.00 1.87 0.96 77 1015.1
20260507190010 72 304 2.0 6.0 0.00 1.87 0.96 77 1015.0
20260507184514 72 343 2.0 7.0 0.00 1.87 0.96 79 1015.2
20260507183034 71 11 3.0 6.0 0.00 1.87 0.96 80 1015.1
20260507181521 71 346 4.0 9.0 0.00 1.87 0.96 80 1015.3
20260507180006 71 334 3.0 8.0 0.00 1.87 0.96 81 1015.3
20260507174512 70 316 3.0 9.0 0.00 1.87 0.96 82 1015.4
20260507173014 70 322 4.0 8.0 0.00 1.87 0.96 81 1015.4
20260507171521 70 273 3.0 6.0 0.00 1.87 0.96 81 1015.6
20260507170023 70 359 3.0 6.0 0.00 1.87 0.96 83 1015.8
20260507164508 69 55 3.0 8.0 0.00 1.87 0.96 83 1015.9
20260507163011 67 316 2.0 5.0 0.00 1.87 0.96 86 1015.9
20260507161521 67 340 3.0 6.0 0.00 1.87 0.96 88 1016.1
20260507160037 66 303 1.0 5.0 0.00 1.87 0.96 88 1016.0
20260507154529 65 102 1.0 4.0 0.00 1.87 0.96 89 1015.8
20260507153009 64 312 3.0 6.0 0.00 1.87 0.96 90 1015.7
20260507151514 64 335 3.0 6.0 0.00 1.87 0.96 90 1015.8
20260507150025 63 314 3.0 5.0 0.00 1.87 0.96 93 1015.7
20260507144532 62 310 3.0 5.0 0.00 1.87 0.96 93 1015.8
20260507143025 62 302 3.0 9.0 0.00 1.87 0.96 93 1015.9
20260507141516 62 302 5.0 9.0 0.00 1.87 0.96 93 1015.9
20260507140018 62 307 3.0 6.0 0.00 1.87 0.96 93 1015.9
20260507134520 62 293 3.0 8.0 0.00 1.87 0.96 93 1015.5
20260507133024 63 313 3.0 9.0 0.00 1.87 0.96 93 1015.5
20260507131523 63 293 4.0 8.0 0.00 1.87 0.96 93 1015.3
20260507130022 64 40 2.0 7.0 0.00 1.87 0.96 94 1015.2
20260507124519 64 327 4.0 8.0 0.00 1.87 0.96 93 1015.1
20260507123019 65 1 4.0 9.0 0.00 1.87 0.96 94 1014.3
20260507121524 65 315 1.0 6.0 0.00 1.87 0.96 93 1014.2
20260507120028 65 333 2.0 9.0 0.00 1.87 0.96 93 1013.7
20260507114515 65 309 2.0 10.0 0.00 1.87 0.96 93 1013.3
20260507113020 66 36 5.0 9.0 0.00 1.87 0.96 93 1013.3
20260507111523 66 303 3.0 7.0 0.00 1.87 0.96 93 1013.0
20260507110029 66 343 4.0 8.0 0.00 1.87 0.96 93 1012.8
20260507104528 67 330 2.0 5.0 0.00 1.87 0.96 93 1012.4
20260507103017 67 328 2.0 5.0 0.00 1.87 0.96 93 1012.4
20260507101502 67 335 1.0 5.0 0.00 1.87 0.96 93 1012.1
20260507100006 67 297 1.0 5.0 0.12 1.87 0.96 93 1012.1
20260507094507 68 300 2.0 10.0 0.48 1.87 0.96 93 1012.2
20260507093023 68 294 4.0 8.0 0.50 1.87 0.96 93 1011.8
20260507091528 69 32 2.0 5.0 0.50 1.87 0.96 93 1011.6
20260507090005 69 247 2.0 5.0 0.44 1.75 0.84 93 1012.0
20260507084508 71 348 3.0 6.0 0.10 1.39 0.48 92 1011.5
20260507083010 71 300 1.0 6.0 0.08 1.37 0.46 93 1011.2
20260507081514 71 297 1.0 2.0 0.09 1.37 0.46 94 1011.0
20260507080020 71 291 1.0 3.0 0.04 1.31 0.40 93 1011.1
20260507074505 71 278 0.0 1.0 0.03 1.29 0.38 93 1011.2
20260507073006 71 279 1.0 3.0 0.03 1.29 0.38 93 1011.6
20260507071512 72 275 0.0 3.0 0.02 1.28 0.37 93 1011.5
20260507070018 72 281 1.0 4.0 0.01 1.27 0.36 93 1011.5
20260507064520 72 236 1.0 6.0 0.00 1.26 0.35 93 1011.7
20260507063018 72 269 0.0 1.0 0.00 1.26 0.35 92 1011.2
20260507061510 72 236 1.0 3.0 0.01 1.26 0.35 92 1011.4
20260507060029 73 283 2.0 6.0 0.35 1.26 0.35 91 1011.2
20260507054519 73 276 3.0 5.0 0.79 1.26 0.35 91 1011.3
20260507053021 73 293 1.0 7.0 0.93 1.26 0.35 92 1010.6
20260507051505 74 103 5.0 10.0 0.96 1.25 0.34 94 1010.3